Location: Palomar Mountain Lodge
(33.3110°N, 116.8495°W)
Time: 00:06:44
(UTC-07:00)

ASTRO E2 - Pass Details

Date: 14 June 2018
Orbit: 513 x 519 km, 31.4° (Epoch: 21 June)

Event Time Altitude Azimuth Distance (km) Brightness Sun altitude
Rises 20:21:52 0° 268° (W) 2,607 7.3 -5.1°
Reaches altitude 10° 20:24:06 10° 266° (W) 1,722 6.3 -5.5°
Maximum altitude 20:28:02 65° 184° (S) 562 2.8 -6.2°
Drops below altitude 10° 20:31:58 10° 102° (ESE) 1,724 4.8 -6.9°
Enters shadow 20:32:35 - 101° (ESE) 1,964 5.1 -7.0°
